Flag for Canada Weather past 2 weeks in Calgary, Alberta, Canada

Now
66 °F

Passing clouds.


Feels Like: 66 °F
Forecast: 53 / 87 °F
Wind: 7 mph from Southeast

Location: Calgary International

Current Time: Jul 29, 2014 at 12:41:32 AM

Latest Report: Jul 29, 2014 at 12:00 AM


Visibility: 15 mi

Pressure: 30.16 "Hg

Humidity: 73%

Dew point: 57 °F

Location of CalgaryLocation

Historic Weather in Calgary — Graph

°F

Calgary temperature yesterday

Maximum temperature yesterday: 82 °F (at 4:00 PM)
Minimum temperature yesterday: 50 °F (at 6:00 AM)
Average temperature yesterday: 69 °F

Past Weeks' High & Low Weather Summary

 TemperatureHumidityPressure
High88 °F (Jul 16, 2:00 PM)94% (Jul 20, 6:00 AM)30.28 "Hg (Jul 20, 6:00 AM)
Low50 °F (Jul 18, 5:00 AM)24% (Jul 27, 6:00 PM)29.55 "Hg (Jul 19, 7:00 PM)
Average64 °F61%29.97 "Hg
* Reported Jul 13 11:00 PM — Jul 28 11:00 PM, Calgary, Weather by CustomWeather, © 2014

Note: Actual official high and low records may vary slightly from our data, if they occured in-between our weather recording intervals... More about our weather records

Advertising

Calgary weather history for previous 24 hours

 ConditionsComfort  
Time TempWeatherWind HumidityBarometerVisibility
11:00 PM
Jul 28
70 °FPassing clouds.6 mph60%30.15 "Hg15 mi
10:00 PM72 °FPassing clouds.5 mph50%30.15 "Hg20 mi
9:00 PM75 °FPassing clouds.12 mph47%30.14 "Hg40 mi
8:00 PM79 °FPassing clouds.12 mph45%30.14 "Hg40 mi
7:00 PM82 °FPassing clouds.9 mph32%30.15 "Hg30 mi
6:00 PM82 °FPassing clouds.10 mph35%30.16 "Hg30 mi
5:00 PM82 °FPassing clouds.7 mph32%30.17 "Hg30 mi
4:00 PM82 °FScattered clouds.8 mph32%30.19 "Hg30 mi
3:00 PM81 °FBroken clouds.9 mph39%30.19 "Hg30 mi
2:00 PM79 °FBroken clouds.7 mph45%30.20 "Hg30 mi
1:00 PM79 °FBroken clouds.3 mph45%30.20 "Hg30 mi
12:00 PM77 °FPartly sunny.2 mph36%30.22 "Hg30 mi
11:00 AM73 °FPartly sunny.2 mph47%30.23 "Hg30 mi
10:00 AM70 °FPartly sunny.No wind57%30.24 "Hg40 mi
9:00 AM64 °FPartly sunny.7 mph60%30.24 "Hg40 mi
8:00 AM57 °FPartly sunny.No wind77%30.25 "Hg40 mi
7:00 AM54 °FScattered clouds.3 mph77%30.24 "Hg40 mi
6:00 AM50 °FPassing clouds.6 mph82%30.24 "Hg30 mi
5:00 AM52 °FPassing clouds.5 mph82%30.24 "Hg15 mi
4:00 AM52 °FPassing clouds.5 mph88%30.23 "Hg15 mi
3:00 AM55 °FClear.5 mph77%30.23 "Hg15 mi
2:00 AM59 °FPassing clouds.5 mph72%30.22 "Hg15 mi
1:00 AM61 °FPassing clouds.7 mph72%30.21 "Hg15 mi
12:00 AM61 °FPassing clouds.8 mph72%30.23 "Hg15 mi
Weather by CustomWeather, © 2014

See weather overviewHow to use our weather pages